User: anonymous   Login
Location: Unspecified
(0.0000°N, 0.0000°E)
Time: 06:16:13
(UTC+01:00)
Language:

CZ-4 DEB - Orbit

View from above orbital plane
View from above orbital plane
View from above satellite
View from above satellite

Ground track
Ground track

The orbit data is extracted from the following two-line orbital elements,

1 29508U 06046D   15084.51388185  .00029313  00000-0  12036-2 0  9999
2 29508 097.6948 100.8367 0006918 064.6629 087.5830 15.24146853459964
Epoch (UTC): 25 March 2015 12:19:59
Eccentricity: 0.0006918
inclination: 97.6948°
perigee height: 488 km
apogee height: 498 km
right ascension of ascending node: 100.8367°
argument of perigee: 64.6629°
revolutions per day: 15.24146853
mean anomaly at epoch: 87.5830°
orbit number at epoch: 45996

The dashed part of the orbit path shows where the satellite is in the earth's shadow,  

DLR